TimeCST,TemperatureF,Dew PointF,Humidity,Sea Level PressureIn,VisibilityMPH,Wind Direction,Wind SpeedMPH,Gust SpeedMPH,PrecipitationIn,Events,Conditions,WindDirDegrees,DateUTC
12:15 AM,67.1,54.5,64,29.96,10.0,South,13.8,-,N/A,,Clear,170,2012-11-10 06:15:00
12:35 AM,66.7,54.7,65,29.96,10.0,South,12.7,-,N/A,,Clear,170,2012-11-10 06:35:00
12:55 AM,66.0,54.7,67,29.95,10.0,South,12.7,-,N/A,,Clear,170,2012-11-10 06:55:00
1:15 AM,65.5,55.0,69,29.94,10.0,South,13.8,-,N/A,,Clear,170,2012-11-10 07:15:00
1:35 AM,65.3,55.4,70,29.95,10.0,South,12.7,-,N/A,,Clear,170,2012-11-10 07:35:00
1:55 AM,64.8,55.6,72,29.94,10.0,South,11.5,-,N/A,,Clear,170,2012-11-10 07:55:00
2:15 AM,64.2,55.9,74,29.94,10.0,South,11.5,-,N/A,,Clear,180,2012-11-10 08:15:00
2:35 AM,63.9,56.3,76,29.93,10.0,South,13.8,-,N/A,,Clear,180,2012-11-10 08:35:00
2:55 AM,63.5,56.3,77,29.93,10.0,South,13.8,-,N/A,,Clear,170,2012-11-10 08:55:00
3:15 AM,63.5,56.7,78,29.94,10.0,South,11.5,-,N/A,,Clear,180,2012-11-10 09:15:00
3:35 AM,63.3,56.8,79,29.94,10.0,South,11.5,18.4,N/A,,Clear,180,2012-11-10 09:35:00
4:15 AM,63.3,57.2,80,29.93,10.0,South,12.7,19.6,N/A,,Mostly Cloudy,180,2012-11-10 10:15:00
4:35 AM,63.7,57.4,80,29.93,10.0,South,15.0,18.4,N/A,,Overcast,180,2012-11-10 10:35:00
4:55 AM,63.9,57.4,79,29.93,10.0,South,13.8,19.6,N/A,,Overcast,180,2012-11-10 10:55:00
5:15 AM,63.7,57.2,79,29.93,10.0,South,13.8,-,N/A,,Mostly Cloudy,180,2012-11-10 11:15:00
5:35 AM,63.9,57.2,79,29.93,10.0,South,10.4,-,N/A,,Mostly Cloudy,190,2012-11-10 11:35:00
5:55 AM,64.4,57.2,77,29.93,10.0,South,11.5,-,N/A,,Overcast,170,2012-11-10 11:55:00
6:15 AM,64.4,57.0,77,29.93,10.0,South,11.5,17.3,N/A,,Overcast,170,2012-11-10 12:15:00
6:35 AM,64.9,57.2,76,29.93,10.0,South,11.5,-,N/A,,Overcast,180,2012-11-10 12:35:00
6:55 AM,65.5,57.2,75,29.94,10.0,South,16.1,21.9,N/A,,Overcast,190,2012-11-10 12:55:00
7:15 AM,66.2,57.4,73,29.94,10.0,South,15.0,19.6,N/A,,Overcast,190,2012-11-10 13:15:00
7:35 AM,66.6,57.4,72,29.95,10.0,SSW,13.8,23.0,N/A,,Overcast,200,2012-11-10 13:35:00
7:55 AM,66.9,57.6,72,29.95,10.0,South,15.0,20.7,N/A,,Overcast,190,2012-11-10 13:55:00
8:15 AM,67.3,57.6,71,29.95,10.0,South,17.3,24.2,N/A,,Scattered Clouds,190,2012-11-10 14:15:00
8:35 AM,67.8,57.7,70,29.95,10.0,South,13.8,23.0,N/A,,Scattered Clouds,180,2012-11-10 14:35:00
9:15 AM,69.3,58.1,68,29.96,10.0,South,17.3,23.0,N/A,,Scattered Clouds,180,2012-11-10 15:15:00
9:35 AM,70.5,58.1,65,29.95,10.0,South,21.9,28.8,N/A,,Mostly Cloudy,190,2012-11-10 15:35:00
9:55 AM,72.5,58.1,60,29.95,10.0,SSW,23.0,36.8,N/A,,Mostly Cloudy,200,2012-11-10 15:55:00
10:15 AM,73.4,57.6,58,29.95,10.0,South,28.8,36.8,N/A,,Scattered Clouds,190,2012-11-10 16:15:00
10:35 AM,73.8,57.4,56,29.95,10.0,South,25.3,29.9,N/A,,Mostly Cloudy,180,2012-11-10 16:35:00
10:55 AM,74.5,57.2,55,29.94,10.0,SSW,23.0,28.8,N/A,,Mostly Cloudy,200,2012-11-10 16:55:00
11:15 AM,75.2,56.8,53,29.93,10.0,SSW,24.2,29.9,N/A,,Scattered Clouds,200,2012-11-10 17:15:00
11:35 AM,75.6,56.5,51,29.91,10.0,South,24.2,35.7,N/A,,Scattered Clouds,180,2012-11-10 17:35:00
11:55 AM,76.6,55.9,49,29.90,10.0,South,21.9,34.5,N/A,,Clear,190,2012-11-10 17:55:00
12:15 PM,77.4,55.8,47,29.89,10.0,South,24.2,31.1,N/A,,Clear,190,2012-11-10 18:15:00
12:35 PM,77.5,55.0,46,29.88,10.0,South,25.3,32.2,N/A,,Clear,180,2012-11-10 18:35:00
12:55 PM,77.9,54.5,44,29.87,10.0,South,25.3,31.1,N/A,,Clear,170,2012-11-10 18:55:00
1:15 PM,78.8,53.4,41,29.85,10.0,South,27.6,32.2,N/A,,Clear,180,2012-11-10 19:15:00
1:35 PM,79.3,52.3,39,29.84,10.0,South,25.3,31.1,N/A,,Clear,190,2012-11-10 19:35:00
1:55 PM,79.2,52.7,40,29.82,10.0,South,26.5,33.4,N/A,,Clear,170,2012-11-10 19:55:00
2:15 PM,80.2,52.2,38,29.81,10.0,South,23.0,31.1,N/A,,Clear,180,2012-11-10 20:15:00
2:35 PM,80.8,51.8,36,29.81,10.0,South,24.2,35.7,N/A,,Clear,170,2012-11-10 20:35:00
2:55 PM,80.8,51.6,36,29.80,10.0,South,21.9,31.1,N/A,,Clear,180,2012-11-10 20:55:00
3:15 PM,80.6,50.5,35,29.80,10.0,South,27.6,34.5,N/A,,Clear,180,2012-11-10 21:15:00
3:35 PM,80.2,50.7,36,29.80,10.0,South,25.3,32.2,N/A,,Clear,190,2012-11-10 21:35:00
3:55 PM,79.7,50.5,36,29.79,10.0,South,23.0,29.9,N/A,,Clear,180,2012-11-10 21:55:00
4:15 PM,79.5,50.9,37,29.78,10.0,South,25.3,31.1,N/A,,Clear,170,2012-11-10 22:15:00
4:35 PM,78.6,50.9,38,29.79,10.0,South,23.0,29.9,N/A,,Clear,170,2012-11-10 22:35:00
4:55 PM,77.2,50.7,39,29.79,10.0,South,18.4,25.3,N/A,,Clear,170,2012-11-10 22:55:00
5:15 PM,76.3,51.6,42,29.79,10.0,South,19.6,31.1,N/A,,Clear,170,2012-11-10 23:15:00
5:55 PM,74.8,52.5,46,29.79,10.0,South,18.4,24.2,N/A,,Clear,170,2012-11-10 23:55:00
6:15 PM,74.3,52.7,47,29.79,10.0,South,20.7,24.2,N/A,,Clear,170,2012-11-11 00:15:00
6:35 PM,73.9,52.9,48,29.80,10.0,South,12.7,21.9,N/A,,Clear,170,2012-11-11 00:35:00
6:55 PM,73.6,53.4,49,29.82,10.0,South,16.1,27.6,N/A,,Clear,180,2012-11-11 00:55:00
7:15 PM,73.0,53.4,50,29.83,10.0,South,16.1,25.3,N/A,,Clear,170,2012-11-11 01:15:00
7:35 PM,72.5,53.2,51,29.83,10.0,South,19.6,25.3,N/A,,Clear,170,2012-11-11 01:35:00
7:55 PM,72.1,53.8,52,29.83,10.0,South,19.6,26.5,N/A,,Clear,180,2012-11-11 01:55:00
8:15 PM,71.8,54.5,54,29.84,10.0,South,18.4,26.5,N/A,,Clear,180,2012-11-11 02:15:00
8:35 PM,71.6,55.2,56,29.84,10.0,South,17.3,24.2,N/A,,Clear,180,2012-11-11 02:35:00
8:55 PM,71.1,55.4,58,29.84,10.0,South,15.0,19.6,N/A,,Clear,180,2012-11-11 02:55:00
9:15 PM,70.7,55.2,58,29.84,10.0,South,17.3,24.2,N/A,,Clear,180,2012-11-11 03:15:00
9:35 PM,70.3,55.2,59,29.84,10.0,South,18.4,23.0,N/A,,Clear,180,2012-11-11 03:35:00
9:55 PM,69.8,55.4,60,29.83,10.0,South,17.3,24.2,N/A,,Clear,170,2012-11-11 03:55:00
10:15 PM,69.8,56.1,62,29.82,10.0,South,19.6,24.2,N/A,,Clear,180,2012-11-11 04:15:00
10:55 PM,69.4,57.4,65,29.82,10.0,South,19.6,25.3,N/A,,Clear,180,2012-11-11 04:55:00
11:15 PM,69.1,58.1,68,29.81,10.0,South,20.7,26.5,N/A,,Clear,180,2012-11-11 05:15:00
11:35 PM,69.1,58.8,70,29.80,10.0,South,17.3,26.5,N/A,,Clear,180,2012-11-11 05:35:00
11:55 PM,69.3,59.0,70,29.79,10.0,South,20.7,32.2,N/A,,Clear,180,2012-11-11 05:55:00